Flag for United Kingdom

Past Weather in Kelso, Scotland, United Kingdom — Yesterday and Last 2 Weeks

Now
61 °F

Partly sunny.


Feels Like: 61 °F
Forecast: 58 / 50 °F
Wind: 9 mph from South

Location: Boulmer

Current Time: Jul 4, 2020 at 9:35:34 pm

Latest Report: Jul 4, 2020 at 8:50 pm


Visibility: N/A

Pressure: 29.53 "Hg

Humidity: 83%

Dew Point: 55 °F

Location of KelsoLocation

Past Weather in Kelso — Graph

°F

Kelso Temperature Yesterday

Maximum temperature yesterday: 63 °F (at 3:50 pm)
Minimum temperature yesterday: 52 °F (at 12:50 am)
Average temperature yesterday: 57 °F

High & Low Weather Summary for the Past Weeks

 TemperatureHumidityPressure
High73 °F (Jun 23, 3:50 pm)100% (Jun 19, 9:50 pm)30.15 "Hg (Jun 19, 9:50 pm)
Low46 °F (Jun 22, 4:50 am)59% (Jun 22, 11:50 am)29.33 "Hg (Jun 27, 8:50 pm)
Average58 °F85%29.77 "Hg
* Reported Jun 19 7:50 pm — Jul 4 7:50 pm, Kelso. Weather by CustomWeather, © 2020

Note: Actual official high and low records may vary slightly from our data, if they occured in-between our weather recording intervals... More about our weather records

Kelso Weather History for the Previous 24 Hours

Scroll right to see more
 ConditionsComfort  
Time TempWeatherWind HumidityBarometerVisibility
7:50 pm
Sat, Jul 4
61 °FPartly sunny.7 mph83%29.56 "HgN/A
6:50 pm63 °FBroken clouds.6 mph77%29.59 "HgN/A
5:50 pm63 °FOvercast.8 mph77%29.59 "HgN/A
4:50 pm63 °FPartly sunny.12 mph77%29.59 "HgN/A
3:50 pm63 °FBroken clouds.9 mph88%29.62 "HgN/A
2:50 pm55 °FPartly sunny.12 mph94%29.62 "HgN/A
1:50 pm55 °FPartly sunny.8 mph94%29.62 "HgN/A
12:50 pm54 °FFog.7 mph100%29.65 "Hg3 mi
11:50 am55 °FFog.6 mph94%29.62 "Hg2 mi
10:50 am55 °FLow clouds.7 mph94%29.62 "HgN/A
9:50 am54 °FFog.5 mph94%29.65 "Hg4 mi
8:50 am54 °FLow clouds.3 mph94%29.65 "HgN/A
7:50 am54 °FFog.3 mph94%29.62 "Hg6 mi
6:50 am52 °FLight rain. Low clouds.3 mph100%29.62 "HgN/A
5:50 am52 °FRain. Low clouds.2 mph100%29.62 "HgN/A
4:50 am52 °FRain. Broken clouds.2 mph100%29.62 "HgN/A
3:50 am54 °FRain. Passing clouds.3 mph94%29.62 "Hg2 mi
2:50 am55 °FRain. Overcast.3 mph94%29.62 "Hg4 mi
1:50 am55 °FPassing clouds.2 mph94%29.62 "HgN/A
12:50 am55 °FPassing clouds.3 mph94%29.65 "HgN/A
11:50 pm
Fri, Jul 3
55 °FPartly cloudy.6 mph94%29.65 "HgN/A
10:50 pm55 °FPassing clouds.8 mph94%29.65 "HgN/A
9:50 pm55 °FPassing clouds.7 mph94%29.62 "Hg4 mi
Weather by CustomWeather, © 2020

See weather overview